SL-16 R/B (28353 NORAD) Tracking and Keplerian Element Data

This shows tracking and keplerian element data for the satellite.

Feedback or suggestion? Click here.




ElementValue
Catalog28353
NameSL-16 R/B
Epoch Orbit1162
Epoch Day13.22053918
Epoch Year2024
RAAN82.6834
Inclination71.0014
Eccentricity0.0004557
Argument of Perigee179.2252
Mean Anonmoly180.8878
Mean Motion14.14376279
Decay Rate4.05E-06
L11 28353U 04021B 24013.22053918 .00000405 00000+0 23669-3 0 9995
L22 28353 71.0014 82.6834 0004557 179.2252 180.8878 14.14376279 11620



Live tracking and technical data element details for SL-16 R/B (NORAD 28353). SL-16 R/B can be tracked NOW for your location showing map with azimuth and elevation plus other details from your city location.







IsCatalogInMostPopularTable: catalog: 28353, numindb: 453
Update: records affected: 1



GetName: 28353 SL-16 R/B

Hit Count: updated at: Mon, 15 Apr 2024 00:26:22 GMT